Regional Weather Roundup
Issued by NWS

Home | Current Version | Previous Version | Graphics & Text | Print | Product List | Glossary Off
Versions: 1 2 3 4 5 6 7 8 9 10 11 12 13 14 15 16 17 18 19 20 21 22 23 24 25 26 27 28 29 30 31 32 33 34 35 36 37 38 39 40 41 42 43 44 45 46 47 48 49 50

000
ASUS43 KMKX 310800
RWRWI

WISCONSIN REGIONAL WEATHER ROUNDUP
NATIONAL WEATHER SERVICE MILWAUKEE/SULLIVAN WI
300 AM CDT SUN JUL 31 2016

NOTE: "FAIR" INDICATES FEW OR NO CLOUDS BELOW 12,000 FEET WITH NO
SIGNIFICANT WEATHER AND/OR OBSTRUCTIONS TO VISIBILITY.

WIZ001-002-006>008-014>016-023>028-310900-
NORTHWEST WISCONSIN

CITY           SKY/WX    TMP DP  RH WIND       PRES   REMARKS
SUPERIOR ARPT  CLOUDY    63  62  97 NE6       30.03S
ASHLAND        CLEAR     57  56  96 CALM      30.05S FOG
HAYWARD        PTCLDY    64  58  80 CALM      30.05S
SIREN          NOT AVBL
CUMBERLAND     PTCLDY    63  59  88 E3        30.05S
RICE LAKE      PTCLDY    65  60  84 E6        30.06S
CHETEK         CLEAR     64  60  86 SE9       30.04S
LADYSMITH      CLEAR     61  57  85 E3        30.08S
EAU CLAIRE     NOT AVBL
MENOMONIE      CLEAR     63  59  88 SE3       30.03S
NEW RICHMOND   CLEAR     64  63  96 SE3       30.02S
OSCEOLA        CLEAR     65  65 100 E5        30.04R
$$

WIZ003>005-009-010-017-018-310900-
NORTH CENTRAL WISCONSIN

CITY           SKY/WX    TMP DP  RH WIND       PRES   REMARKS
MANITOWISH WTR CLEAR     54  54 100 CALM      30.10S
ARBOR VITAE    CLEAR     55  53  92 CALM      30.10S
WOODRUFF       CLEAR     55  53  92 CALM      30.10S
RHINELANDER    CLEAR     51  49  92 CALM      30.10S
EAGLE RIVER    MOCLDY    52  52 100 CALM      30.10S FOG
LAND O LAKES   CLEAR     49  49  99 CALM      30.12R
PHILLIPS       CLOUDY    58  56  94 CALM      30.08S
TOMAHAWK       CLEAR     48  47  96 CALM      30.09F
MEDFORD        PTCLDY    56  56 100 E3        30.08S
MERRILL        CLEAR     50  50 100 CALM      30.10R
$$

WIZ029-030-035-036-043>047-310900-
CENTRAL WISCONSIN

CITY           SKY/WX    TMP DP  RH WIND       PRES   REMARKS
WAUSAU         CLEAR     55  54  96 CALM      30.06S
MOSINEE        CLEAR     57  52  82 NE5       30.08S
MARSHFIELD     CLEAR     60  54  80 CALM      30.06S
STEVENS POINT  CLEAR     53  53  97 CALM      30.07S
WAUPACA        CLEAR     57  56  98 N3        30.05S
WAUTOMA        CLEAR     55  54  96 CALM      30.06S
WISC RAPIDS    CLEAR     57  51  80 CALM      30.07S
CAMP DOUGLAS   CLEAR     54  54 100 E3        30.04S FOG
$$

WIZ011>013-019>022-031-037>040-048>050-310900-
NORTHEAST WISCONSIN

CITY           SKY/WX    TMP DP  RH WIND       PRES   REMARKS
ANTIGO         CLEAR     50  49  97 CALM      30.09S
SHAWANO        PTCLDY    57  54  91 CALM      30.06S
OCONTO         PTCLDY    58  58 100 CALM      30.03F
STURGEON BAY   CLEAR     59  57  93 CALM      30.04S
GREEN BAY      CLEAR     58  58 100 CALM      30.03S
MANITOWOC      NOT AVBL
APPLETON       CLEAR     59  57  94 N5        30.03S
CLINTONVILLE   CLEAR     55  54  94 CALM      30.05S
OSHKOSH        CLEAR     59  55  87 W3        30.03S
$$

WIZ032>034-041-042-053>061-310900-
SOUTHWEST WISCONSIN

CITY           SKY/WX    TMP DP  RH WIND       PRES   REMARKS
LA CROSSE      CLOUDY    67  61  81 E7        30.02S
SPARTA         CLEAR     57  57  99 CALM      30.05S
VIROQUA        CLOUDY    62  59  91 SE5       30.05S
BOSCOBEL       CLEAR     61  60  97 CALM      30.04S FOG
PRAIRIE DU CHI   N/A     64  61  91 CALM      30.02S
PLATTEVILLE    CLEAR     63  62  97 E7        30.05S
$$

WIZ056-057-062-063-064-067-068-310900-
SOUTH CENTRAL WISCONSIN

CITY           SKY/WX    TMP DP  RH WIND       PRES   REMARKS
REEDSBURG      CLOUDY    58  58 100 CALM      30.05S
BARABOO/DELLS  CLEAR     56  54  92 CALM      30.05S
LONE ROCK      NOT AVBL
MINERAL POINT  CLEAR     63  61  94 SE5       30.05F
MADISON        CLEAR     57  56  96 CALM      30.04S
MIDDLETON      CLEAR     58  58 100 CALM      30.05S
WATERTOWN      PTCLDY    57  57 100 CALM      30.03S
MONROE         CLEAR     63  59  88 CALM      30.05S
JANESVILLE     CLEAR     61  59  94 W3        30.03S
$$

WIZ051-052-058>065-066-070>072-310900-
SOUTHEAST WISCONSIN

CITY           SKY/WX    TMP DP  RH WIND       PRES   REMARKS
MILWAUKEE      PTCLDY    68  64  87 NW3       30.01F
WAUKESHA       CLEAR     59  59 100 CALM      30.04S
MILWAUKEE/TIMM CLEAR     63  59  88 CALM      30.03F
RACINE         PTCLDY    64  62  93 N3        30.02F
BURLINGTON     PTCLDY    57  57  98 CALM      30.02F
KENOSHA        MOCLDY    65  63  93 NW3       30.01F
FOND DU LAC    CLEAR     56  54  93 CALM      30.04S
SHEBOYGAN      CLEAR     57  55  93 NW3       30.03S
WEST BEND      CLEAR     55  55 100 CALM      30.03S
JUNEAU         PTCLDY    57  56  95 CALM      30.05S
$$

LSZ147-162-310900-
LAKE SUPERIOR

STATION/POSITION TIME  TEMP    WIND        PRES    WAVE
                       AIR SEA DIR/SP/G            HT/PER
                 (UTC) (F)     (DEG/KT/KT) (MB)    (FT/S)
W MID LAKE BUOY  0650   65 62  170/  8/ 10 1016.7R   0
DEVILS ISLAND    0700   66     110/  4/  4 1016.9S
PORT WING        0700   59     130/  1/  2 1017.3R
SAXON HARBOR     0740   66     200/  4/  8 1016.9S
$$

LMZ867-665-643>646-310900-
LAKE MICHIGAN

STATION/POSITION TIME  TEMP    WIND        PRES    WAVE
                       AIR SEA DIR/SP/G            HT/PER
                 (UTC) (F)     (DEG/KT/KT) (MB)    (FT/S)
CHAMBERS ISLAND  0700   71      40/  8/ 11 1016.9S
N MID LAKE BUOY  0650   70 70  100/ 10/ 12 1016.5F   2/ 4
NORTHPORT PIER   0700   70      50/  7/ 10 1016.9F
SISTER BAY       0721   64        CALM       N/A
ALGOMA LAKESHORE 0613          320/  7/  8   N/A
KEWAUNEE LAKESHO 0700   62     310/  2/  3 1016.3F
SHEBOYGAN LAKESH 0700   65     340/  8/  8 1016.8F
PORT WASHINGTON  0700   66     320/  4/  6 1017.3S
ATWATER BUOY     0700   66 65  350/  6/  8 1018.2R
MILWAUKEE LAKESH 0710   67     330/  3/  4   N/A
S MID LAKE BUOY  0650   70 73  100/  8/ 10 1015.5R   2/ 5
KENOSHA   LAKESH 0700   69     310/  2/  4 1016.3R
$$

TC  - TEMPERATURE IN CELSIUS
VSB - VISIBILITY IN STATUTE MILES
WCI - WIND CHILL INDEX
HX  - HEAT INDEX





USA.gov is the U.S. government's official web portal to all federal, state and local government web resources and services.